sat.trackr.live / text

‹ back to catalog

YAOGAN-45

NORAD 65563 · 2025-202A

PAYLOAD ACTIVE UNKNOWN

§ Identity

Operator
Country
PRC
Launch date
2025-09-09
Launch site
WSC
Launch vehicle
Mass (kg)
RCS (m²)

External: N2YO · Heavens-Above · Gunter

§ Orbital elements

Epoch: 2026-05-24T17:37:53.005728Z

Period
271.08 min
Inclination
19.9450°
Eccentricity
0.0007761
Mean motion
5.31206881 rev/d
Perigee alt
7,485.9 km
Apogee alt
7,507.4 km
Semi-major
13,874.8 km
B*
0.0000e+0
RAAN
232.2660°
Arg perigee
208.7138°
Mean anomaly
151.2747°
Rev number
1,084

§ Raw data

YAOGAN-451 65563U 25202A   26144.73464127 -.00000019  00000+0  00000+0 0  99962 65563  19.9450 232.2660 0007761 208.7138 151.2747  5.31206881 10840

JSON: /api/v1/satellites/65563 · /tle

For live sub-satellite position, see the globe view (requires WebGL).

§ Visibility from observer

Set your observer location to see the next 7 days of passes ≥ 10°. The values pass through the URL so the page stays shareable.

No JS? Fill the form by hand. The geolocation button needs JavaScript.